Weather History for Olney-Noble, IL

Change the Weather History Date:

Monday, March 17, 2014

  Actual Average (KEVV) Record (KEVV)
Temperature  
Mean Temperature 32 °F 46 °F  
Max Temperature 41 °F 57 °F 80 °F (2012)
Min Temperature 24 °F 36 °F 13 °F (1900)
Degree Days  
Heating Degree Days 32 19  
Month to date heating degree days 363  
Since 1 July heating degree days 3937  
Cooling Degree Days 0 0  
Month to date cooling degree days 0  
Year to date cooling degree days 0  
Moisture  
Dew Point 22 °F    
Average Humidity 69    
Maximum Humidity 93    
Minimum Humidity 59    
Precipitation  
Precipitation 0.00 in 0.15 in 2.92 in (1951)
Month to date precipitation 2.18  
Year to date precipitation 8.45  
Snow  
Snow 0.00 in 0.00 in 8.30 in (1970)
Month to date snowfall 0.7  
Since 1 July snowfall 11.4  
Snow Depth -    
Sea Level Pressure  
Sea Level Pressure 29.91 in    
Wind  
Wind Speed 5 mph (NNE)    
Max Wind Speed 12 mph    
Max Gust Speed 18 mph    
Visibility 10 miles    
Events      
T = Trace of Precipitation, MM = Missing Value Source: NWS Daily Summary

Daily Weather History Graph

Daily Weather History Graph

Search for Another Location

Airport:

Trip Planner

Search our weather history database for the weather conditions in past years. The results will help you decide how hot, cold, wet, or windy it might be!

Date:

Astronomy

Mar. 17, 2014 Rise Set
Actual Time 7:00 AM CDT 7:01 PM CDT
Civil Twilight 6:34 AM CDT 7:28 PM CDT
Nautical Twilight 6:03 AM CDT 7:59 PM CDT
Astronomical Twilight 5:32 AM CDT 8:30 PM CDT
Moon 8:17 PM CDT (3/17) 7:17 AM CDT (3/17)
Length of Visible Light 12h 53m
Length of Day
12h 00m
Full, 99% of the Moon is Illuminated
Mar 17
Full
Mar 23
Last Quarter
Mar 30
New
Apr 7
First Quarter
Apr 15
Full

Hourly Weather History & Observations

Time (CDT) Temp. Windchill Dew Point Humidity Pressure Visibility Wind Dir Wind Speed Gust Speed Precip Events Conditions
12:15 AM 26.6 °F 16.8 °F 15.8 °F 64% 30.02 in 10.0 mi NNE 10.4 mph - N/A   Clear
12:35 AM 26.6 °F 18.2 °F 15.8 °F 64% 30.02 in 10.0 mi NNE 8.1 mph - N/A   Scattered Clouds
12:55 AM 26.6 °F 16.8 °F 15.8 °F 64% 30.02 in 10.0 mi NNE 10.4 mph - N/A   Mostly Cloudy
1:15 AM 26.6 °F 17.5 °F 15.8 °F 64% 30.01 in 10.0 mi North 9.2 mph - N/A   Overcast
1:35 AM 26.6 °F 16.8 °F 14.0 °F 59% 30.02 in 10.0 mi North 10.4 mph - N/A   Overcast
1:55 AM 26.6 °F 16.2 °F 14.0 °F 59% 30.03 in 10.0 mi NNE 11.5 mph 18.4 mph N/A   Overcast
2:15 AM 26.6 °F 17.5 °F 14.0 °F 59% 30.02 in 10.0 mi NNE 9.2 mph - N/A   Overcast
2:35 AM 26.6 °F 16.8 °F 14.0 °F 59% 29.99 in 10.0 mi NNE 10.4 mph - N/A   Overcast
2:55 AM 26.6 °F 17.5 °F 14.0 °F 59% 29.98 in 10.0 mi NE 9.2 mph - N/A   Overcast
3:15 AM 26.6 °F 16.8 °F 14.0 °F 59% 29.97 in 10.0 mi NNE 10.4 mph 16.1 mph N/A   Overcast
3:35 AM 26.6 °F 16.8 °F 14.0 °F 59% 29.98 in 10.0 mi North 10.4 mph - N/A   Overcast
3:55 AM 26.6 °F 16.2 °F 14.0 °F 59% 29.98 in 10.0 mi NNE 11.5 mph - N/A   Overcast
4:15 AM 26.6 °F 17.5 °F 14.0 °F 59% 29.96 in 10.0 mi NNE 9.2 mph - N/A   Overcast
4:35 AM 26.6 °F 17.5 °F 14.0 °F 59% 29.95 in 10.0 mi NNE 9.2 mph - N/A   Overcast
4:55 AM 24.8 °F 15.3 °F 14.0 °F 64% 29.94 in 10.0 mi NNE 9.2 mph - N/A   Overcast
5:15 AM 26.6 °F 17.5 °F 14.0 °F 59% 29.93 in 10.0 mi NE 9.2 mph - N/A   Overcast
5:35 AM 24.8 °F 19.1 °F 14.0 °F 64% 29.93 in 10.0 mi NE 4.6 mph - N/A   Overcast
5:55 AM 24.8 °F 16.9 °F 15.8 °F 69% 29.94 in 10.0 mi NE 6.9 mph - N/A   Overcast
6:15 AM 24.8 °F 17.9 °F 15.8 °F 69% 29.95 in 10.0 mi NE 5.8 mph - N/A   Overcast
6:35 AM 24.8 °F 17.9 °F 15.8 °F 69% 29.95 in 10.0 mi NNE 5.8 mph - N/A   Overcast
6:55 AM 24.8 °F 19.1 °F 17.6 °F 74% 29.95 in 10.0 mi NE 4.6 mph - N/A   Overcast
7:15 AM 24.8 °F 17.9 °F 17.6 °F 74% 29.95 in 10.0 mi ENE 5.8 mph - N/A   Overcast
7:35 AM 24.8 °F 20.5 °F 15.8 °F 69% 29.95 in 10.0 mi NE 3.5 mph - N/A   Overcast
7:55 AM 26.6 °F 20.0 °F 17.6 °F 69% 29.95 in 10.0 mi North 5.8 mph - N/A   Overcast
8:15 AM 26.6 °F 21.2 °F 17.6 °F 69% 29.95 in 10.0 mi NNE 4.6 mph - N/A   Overcast
8:35 AM 26.6 °F - 17.6 °F 69% 29.96 in 10.0 mi Calm Calm - N/A   Overcast
8:55 AM 26.6 °F - 17.6 °F 69% 29.98 in 10.0 mi Calm Calm - N/A   Overcast
9:15 AM 26.6 °F - 19.4 °F 74% 29.97 in 10.0 mi Calm Calm - N/A   Overcast
9:35 AM 26.6 °F - 19.4 °F 74% 29.96 in 10.0 mi Calm Calm - N/A   Overcast
9:55 AM 26.6 °F - 19.4 °F 74% 29.95 in 10.0 mi Calm Calm - N/A   Overcast
10:15 AM 28.4 °F 24.6 °F 19.4 °F 69% 29.96 in 10.0 mi NNE 3.5 mph - N/A   Overcast
10:35 AM 28.4 °F - 19.4 °F 69% 29.95 in 10.0 mi Calm Calm - N/A   Overcast
10:55 AM 28.4 °F - 19.4 °F 69% 29.94 in 10.0 mi Calm Calm - N/A   Overcast
11:15 AM 30.2 °F - 21.2 °F 69% 29.94 in 10.0 mi Calm Calm - N/A   Overcast
11:35 AM 30.2 °F - 21.2 °F 69% 29.94 in 10.0 mi Calm Calm - N/A   Overcast
11:55 AM 32.0 °F - 23.0 °F 69% 29.93 in 10.0 mi Calm Calm - N/A   Overcast
12:15 PM 32.0 °F - 21.2 °F 64% 29.93 in 10.0 mi Calm Calm - N/A   Overcast
12:35 PM 32.0 °F - 23.0 °F 69% 29.92 in 10.0 mi Calm Calm - N/A   Overcast
12:55 PM 33.8 °F - 24.8 °F 70% 29.91 in 10.0 mi Calm Calm - N/A   Overcast
1:15 PM 33.8 °F - 24.8 °F 70% 29.90 in 10.0 mi Calm Calm - N/A   Overcast
1:35 PM 33.8 °F - 24.8 °F 70% 29.89 in 10.0 mi Calm Calm - N/A   Overcast
1:55 PM 35.6 °F - 26.6 °F 70% 29.88 in 10.0 mi Calm Calm - N/A   Overcast
2:15 PM 35.6 °F - 26.6 °F 70% 29.87 in 10.0 mi Calm Calm - N/A   Overcast
2:35 PM 37.4 °F - 28.4 °F 70% 29.86 in 10.0 mi Calm Calm - N/A   Scattered Clouds
2:55 PM 37.4 °F 33.8 °F 28.4 °F 70% 29.85 in 10.0 mi SE 4.6 mph - N/A   Clear
3:15 PM 39.2 °F - 28.4 °F 65% 29.85 in 10.0 mi Calm Calm - N/A   Clear
3:35 PM 39.2 °F - 28.4 °F 65% 29.85 in 10.0 mi Calm Calm - N/A   Clear
3:55 PM 41.0 °F - 28.4 °F 61% 29.86 in 10.0 mi Calm Calm - N/A   Clear
4:15 PM 41.0 °F - 28.4 °F 61% 29.85 in 10.0 mi Calm Calm - N/A   Clear
4:35 PM 41.0 °F - 28.4 °F 61% 29.85 in 10.0 mi Calm Calm - N/A   Clear
4:55 PM 41.0 °F - 28.4 °F 61% 29.83 in 10.0 mi Calm Calm - N/A   Clear
5:15 PM 41.0 °F 39.0 °F 28.4 °F 61% 29.83 in 10.0 mi SW 3.5 mph - N/A   Clear
5:35 PM 41.0 °F - 28.4 °F 61% 29.82 in 10.0 mi Calm Calm - N/A   Clear
5:55 PM 41.0 °F - 28.4 °F 61% 29.82 in 10.0 mi Calm Calm - N/A   Clear
6:15 PM 41.0 °F - 28.4 °F 61% 29.83 in 10.0 mi Calm Calm - N/A   Clear
6:35 PM 41.0 °F - 30.2 °F 65% 29.83 in 10.0 mi Calm Calm - N/A   Clear
6:55 PM 39.2 °F - 28.4 °F 65% 29.83 in 10.0 mi Calm Calm - N/A   Clear
7:15 PM 39.2 °F - 28.4 °F 65% 29.84 in 10.0 mi Calm Calm - N/A   Clear
7:35 PM 37.4 °F - 30.2 °F 75% 29.84 in 10.0 mi Calm Calm - N/A   Clear
7:55 PM 35.6 °F - 30.2 °F 81% 29.85 in 10.0 mi Calm Calm - N/A   Clear
8:15 PM 33.8 °F - 30.2 °F 87% 29.85 in 10.0 mi Calm Calm - N/A   Clear
8:35 PM 33.8 °F - 30.2 °F 87% 29.85 in 10.0 mi Calm Calm - N/A   Clear
8:55 PM 33.8 °F - 30.2 °F 87% 29.85 in 10.0 mi Calm Calm - N/A   Clear
9:15 PM 33.8 °F - 28.4 °F 81% 29.85 in 10.0 mi Calm Calm - N/A   Clear
9:35 PM 33.8 °F - 28.4 °F 81% 29.85 in 10.0 mi Calm Calm - N/A   Clear
9:55 PM 32.0 °F - 28.4 °F 87% 29.87 in 10.0 mi Calm Calm - N/A   Clear
10:15 PM 32.0 °F - 28.4 °F 87% 29.87 in 10.0 mi Calm Calm - N/A   Clear
10:35 PM 32.0 °F - 28.4 °F 87% 29.87 in 10.0 mi Calm Calm - N/A   Clear
10:55 PM 30.2 °F - 28.4 °F 93% 29.87 in 10.0 mi Calm Calm - N/A   Clear
11:15 PM 32.0 °F 28.7 °F 28.4 °F 87% 29.87 in 10.0 mi SE 3.5 mph - N/A   Clear
11:35 PM 32.0 °F - 28.4 °F 87% 29.87 in 10.0 mi Calm Calm - N/A   Clear
11:55 PM 32.0 °F - 28.4 °F 87% 29.87 in 10.0 mi Calm Calm - N/A   Clear